SCOUT A DEB

Satellite information

Favourite Embed

Satellite Type and Status

DEBRISIN ORBIT

Key statistics

Satellite SCOUT A DEB at a glance.

Uptime

21269

Days in orbit

Revolutions

≈ 14.0

Per day

Orbit

LEO

Low Earth Orbit

Inclination

89.4

Latest

Satellite identification and parameters

Extended collection of information and parameters for SCOUT A DEB.

Object identification

Identified? True

Debris? True

Object name: SCOUT A DEB

International designator: 1967-092C

Object number (NORAD): 2994

Object ID (CCSDS): 2994

Country: UNITED STATES OF AMERICA (US)

Current information (Y/N): Y

RCS size: SMALL

Orbital parameters

Period: 103.058 minutes

Inclination: 89.4365 deg

SMA: 7281.394 km

Apoapsis: 969.265 km

Periapsis: 837.252 km

RAAN: 356.3953 deg

Eccentricy: 0.00906515

Argument of periapsis: 58.9635 deg

Mean anomaly: 302.0403 deg

Mean motion: 13.97272147 rev/day

Mean motion (dot): 0.00000532 rev/day2

B* drag term: 0.00035792509 1/REarth

Two-line elements (TLE)

Creation date: Dec. 17, 2025, 2:25 a.m.

Reference frame: TEME

Reference center: EARTH

Epoch: Dec. 16, 2025, 6:06 p.m. UTC

TLE line 0: 0 SCOUT A DEB

TLE line 1: 1 02994U 67092C 25350.75445219 .00000532 00000-0 35793-3 0 9990

TLE line 2: 2 02994 89.4365 356.3953 0090651 58.9635 302.0403 13.97272147949302

Live tracking on map

Real-time ground track for satellite SCOUT A DEB.

In-orbit conjunctions

A list of the most updated potential collisions computed for object SCOUT A DEB.

Target Orbit TCA Probability of collision Miss distance Type
COSMOS 2266 LEO 2025-12-12 22:31:44 0.01034483 53.0 (m) PAYLOAD
METEOR 1-17 DEB LEO 2024-07-26 03:26:44 0.0001287764 24.0 (m) DEBRIS

Associated space launch

The Transit-O series of satellites that closely followed the design of Transit 5C-1 were also called “Oscars” (Oscar is the phonetic alphabet for “O”, i. e., operational). They were also called NNS (Navy Navigation Satellite) or shortened NavSat.

SCOUT A DEB was lifted into orbit during the mission ‘Scout A | Transit-O 14’, on board a Scout A space rocket.

The launch took place on Sept. 25, 1967, 8:25 a.m. from Space Launch Complex 5.

For more information about the launch, click the button.

Launch to space Scout A | Transit-O 14
Scout A | Transit-O 14

Agency: N/A

Status: Launch Successful

Launch date: Sept. 25, 1967, 8:25 a.m. UTC

Rocket: Scout A

Launch pad: Space Launch Complex 5

Location: Vandenberg SFB, CA, USA

...

Latest news about this satellite

There are no fresh news available about this satellite. Check back as we update our databases every day.


Newsletter sign-up

Weekly statistics, charts and insights to help you stay on top of the space industry.